This demonstration page uses our WeatherBlox Daily Observations layout. Learn more.

Left ArrowRight Arrow

47.50024, -111.30081

Hourly Observations for April 17, 2022

Temp ( °F °C ) Dew Point ( °F °C ) Humidity (%) Winds ( mph kmh ) Pressure ( in mb ) Visibility ( mi km ) Precip ( " mm )
12:00 am 00:00 Cloudy 26 -3.3 24 -4.4 92 92 WSW 10 17 30.00 1016 10 16 0.00 0.00
12:13 am 00:13 Cloudy 26 -3.3 24 -4.4 92 92 W 15 24 30.01 1016 10 16 0.00 0.00
12:22 am 00:22 Cloudy 26 -3.3 24 -4.4 92 92 W 10 17 30.02 1017 10 16 0.00 0.00
12:53 am 00:53 Cloudy 26 -3.3 24 -4.4 92 92 WNW 15 24 30.00 1016 10 16 0.00 0.00
1:53 am 01:53 Cloudy 26 -3.3 24 -4.4 92 92 W 15 24 30.03 1017 10 16 0.00 0.00
2:22 am 02:22 Cloudy 26 -3.3 24 -4.4 92 92 W 10 17 30.08 1019 10 16 0.00 0.00
2:46 am 02:46 Cloudy 26 -3.3 24 -4.4 92 92 W 8 13 30.09 1019 10 16 0.00 0.00
2:53 am 02:53 Cloudy 26 -3.3 24 -4.4 92 92 WSW 9 15 30.08 1019 10 16 0.00 0.00
3:29 am 03:29 Cloudy 26 -3.3 23 -5 88 88 W 10 17 30.12 1020 10 16 0.00 0.00
3:53 am 03:53 Cloudy 26 -3.3 23 -5 88 88 W 13 20 30.11 1020 10 16 0.00 0.00
4:03 am 04:03 Cloudy 25 -3.9 22 -5.6 88 88 W 13 20 30.15 1021 10 16 0.00 0.00
4:09 am 04:09 Cloudy 25 -3.9 22 -5.6 88 88 W 12 19 30.16 1021 10 16 0.00 0.00
4:21 am 04:21 Cloudy 26 -3.3 23 -5 88 88 W 13 20 30.16 1021 10 16 0.00 0.00
4:47 am 04:47 Cloudy 27 -3 21 -6 80 80 WNW 10 17 30.17 1022 10 16 0.00 0.00
4:53 am 04:53 Cloudy 25 -3.9 22 -5.6 88 88 WNW 8 13 30.16 1022 10 16 0.00 0.00
5:45 am 05:45 Cloudy 25 -3.9 22 -5.6 88 88 W 7 11 30.21 1023 10 16 0.00 0.00
5:53 am 05:53 Cloudy 25 -3.9 23 -5 92 92 NW 8 13 30.19 1022 10 16 0.00 0.00
6:00 am 06:00 Cloudy 25 -3.9 22 -5.6 88 88 WNW 7 11 30.22 1023 10 16 0.00 0.00
6:30 am 06:30 Cloudy 24 -4.4 22 -5.6 91 91 W 7 11 30.24 1024 9 14 0.00 0.00
6:34 am 06:34 Cloudy with Light Snow 24 -4.4 22 -5.6 91 91 W 6 9 30.24 1024 7 11 0.00 0.00
6:45 am 06:45 Cloudy with Light Snow 24 -4.4 22 -5.6 91 91 W 6 9 30.25 1024 2 3 0.00 0.00
6:53 am 06:53 Cloudy with Light Snow 24 -4.4 22 -5.6 91 91 WNW 6 9 30.23 1024 1 2 0.01 0.25
7:20 am 07:20 Cloudy with Light Snow 24 -4.4 22 -5.6 91 91 W 7 11 30.27 1025 1 2 0.00 0.00
7:38 am 07:38 Cloudy 24 -4.4 22 -5.6 91 91 W 6 9 30.28 1025 1 2 0.00 0.00
7:41 am 07:41 Cloudy 24 -4.4 22 -5.6 91 91 W 5 7 30.28 1025 7 11 0.00 0.00
7:53 am 07:53 Cloudy 24 -4.4 22 -5.6 91 91 W 6 9 30.27 1025 8 13 0.00 0.00
8:53 am 08:53 Cloudy 25 -3.9 22 -5.6 88 88 NNW 5 7 30.29 1026 10 16 0.00 0.00
9:25 am 09:25 Cloudy 28 -2.2 23 -5 81 81 WNW 3 6 30.29 1026 10 16 0.00 0.00
9:53 am 09:53 Cloudy 29 -1.7 23 -5 78 78 WNW 5 7 30.29 1026 10 16 0.00 0.00
10:28 am 10:28 Cloudy 28 -2.2 23 -5 81 81 SSW 5 7 30.31 1026 10 16 0.00 0.00
10:40 am 10:40 Partly Cloudy 28 -2.2 22 -5.6 78 78 WSW 5 7 30.32 1027 10 16 0.00 0.00
10:53 am 10:53 Mostly Sunny 28 -2.2 23 -5 81 81 S 3 6 30.31 1027 10 16 0.00 0.00
11:53 am 11:53 Mostly Sunny 30 -1.1 25 -3.9 82 82 SSW 8 13 30.32 1027 10 16 0.00 0.00
12:53 pm 12:53 Sunny 33 0.6 25 -3.9 72 72 SSW 7 11 30.31 1026 10 16 0.00 0.00
1:53 pm 13:53 Sunny 36 2.2 26 -3.3 67 67 SSW 7 11 30.30 1026 10 16 0.00 0.00
2:53 pm 14:53 Mostly Sunny 40 4.4 25 -3.9 55 55 SW 15 24 30.29 1026 10 16 0.00 0.00
3:53 pm 15:53 Sunny 42 5.6 23 -5 47 47 WSW 17 28 30.28 1026 10 16 0.00 0.00
4:53 pm 16:53 Mostly Sunny 42 5.6 20 -6.7 41 41 WSW 17 28 30.29 1026 10 16 0.00 0.00
5:53 pm 17:53 Sunny 41 5 20 -6.7 43 43 WSW 16 26 30.30 1026 10 16 0.00 0.00
6:53 pm 18:53 Sunny 40 4.4 20 -6.7 45 45 WSW 16 26 30.30 1026 10 16 0.00 0.00
7:53 pm 19:53 Sunny 35 1.7 22 -5.6 59 59 WSW 8 13 30.34 1027 10 16 0.00 0.00
8:53 pm 20:53 Clear 28 -2.2 20 -6.7 72 72 WSW 9 15 30.37 1029 10 16 0.00 0.00
9:53 pm 21:53 Clear 26 -3.3 20 -6.7 78 78 SW 9 15 30.39 1029 10 16 0.00 0.00
10:53 pm 22:53 Clear 25 -3.9 18 -7.8 75 75 SW 7 11 30.40 1029 10 16 0.00 0.00
11:53 pm 23:53 Clear 24 -4.4 17 -8.3 75 75 SW 9 15 30.40 1029 10 16 0.00 0.00

Powered by AerisWeather